Weather Roundup
Issued by NWS

Home | Current Version | Previous Version | Graphics & Text | Print | Product List | Glossary Off
Versions: 1 2 3 4 5 6 7 8 9 10 11 12 13 14 15 16 17 18 19 20 21 22 23 24 25 26 27 28 29 30 31 32 33 34 35 36 37 38 39 40 41 42 43 44 45 46 47 48 49 50

000
NZUS93 KARX 290110
HRRWXR

CURRENT HOURLY OBSERVATIONS ACROSS
MUCH OF THE UPPER MISSISSIPPI VALLEY
NATIONAL WEATHER SERVICE LA CROSSE WI
800 PM CDT THU AUG 28 2014


...SOUTHEAST MINNESOTA...


CITY           SKY/WX    TMP DP  RH WIND       PRES   REMARKS
ROCHESTER      LGT RAIN  65  63  93 NE3       29.97S
ROCHESTER/MAYO CLOUDY    65  64  97 E6        29.96S
WINONA         RAIN      66  64  94 SE12      29.96F
AUSTIN         RAIN      64  64 100 CALM      29.93F
ALBERT LEA     DRIZZLE   64  64 100 E5        29.92F
DODGE CENTER   DRIZZLE   64  64 100 E7        29.95F
PRESTON        CLOUDY    65  65 100 CALM      29.96S
OWATONNA       CLOUDY    66  63  88 E10       29.93F
FARIBAULT      CLOUDY    66  63  88 E6        29.94F
$$

...ELSEWHERE IN MINNESOTA...


CITY           SKY/WX    TMP DP  RH WIND       PRES   REMARKS
MINNEAPOLIS    DRIZZLE   67  64  90 SE15      29.94F
INTNL FALLS    CLOUDY    67  59  75 CALM      29.93F
DULUTH         CLOUDY    62  53  72 E7        30.00S
RED WING       LGT RAIN  66  64  94 E6        29.95F
REDWOOD FALLS  CLOUDY    68  66  93 SE8       29.88S
MANKATO        CLOUDY    66  61  82 E9        29.91F
WORTHINGTON    CLOUDY    68  66  94 E10       29.88F VSB 3/4
FAIRMONT       CLOUDY    64  61  88 E9        29.89F
$$

...SOUTHWEST WISCONSIN...


CITY           SKY/WX    TMP DP  RH WIND       PRES   REMARKS
LA CROSSE      RAIN      67  64  90 SE9       29.96F FOG
PRAIRIE DU CHI CLOUDY    71  61  70 SE7       29.96S
BOSCOBEL       CLOUDY    72  61  68 E6        29.97F
LONE ROCK      CLOUDY    74  61  63 E10       30.00F
PLATTEVILLE    CLOUDY    69  62  79 SE14      30.00S
FORT MC COY    RAIN      65  64  94 NE5       30.01R
CAMP DOUGLAS   CLOUDY    65  65 100 E9        30.01F
VIROQUA        CLOUDY    65  65 100 SE9       29.98F
WIS DELLS      CLOUDY    65  57  74 E9        30.03F
$$

...ELSEWHERE IN WISCONSIN...


CITY           SKY/WX    TMP DP  RH WIND       PRES   REMARKS
MILWAUKEE      CLOUDY    67  56  67 E8        30.07S
MADISON        CLOUDY    67  54  63 E9        30.04S
GREEN BAY      CLOUDY    63  56  78 S5        30.08S
EAU CLAIRE     LGT RAIN  66  64  93 E7        30.00S
BLACK RVR FLS  RAIN      66  66 100 E3        30.00F
MEDFORD        DRIZZLE   63  62  96 SE5       30.05S
WAUSAU         LGT RAIN  64  62  93 SE7       30.05R
WIS RAPIDS     LGT RAIN  65  61  87 SE9       30.06R
MARSHFIELD     RAIN      65  63  93 SE6       30.05R FOG
RICE LAKE      LGT RAIN  65  63  92 SE3       30.02S
$$

...NORTHEAST IOWA...


CITY           SKY/WX    TMP DP  RH WIND       PRES   REMARKS
WATERLOO       CLOUDY    70  66  87 SE9       29.92S
DUBUQUE        CLOUDY    68  65  90 SE10      29.99S
DECORAH        LGT RAIN  66  66 100 SE6       29.95S
MASON CITY     CLOUDY    69  68  96 SE9       29.92F FOG
CHARLES CITY   CLOUDY    68  68 100 SE8       29.94S FOG
OELWEIN        CLOUDY    68  66  94 SE12      29.95F
$$

...ELSEWHERE IN IOWA...


CITY           SKY/WX    TMP DP  RH WIND       PRES   REMARKS
DES MOINES     MOCLDY    76  71  85 E8        29.87F
IOWA CITY      CLOUDY    69  69 100 SE6       29.94F
FORT DODGE     PTCLDY    73  70  88 SE6       29.89S
MARSHALLTOWN   CLOUDY    72  69  90 SE9       29.90F
CEDAR RAPIDS   CLOUDY    70  69  97 SE7       29.93F
$$

...NORTHERN ILLINOIS...


CITY           SKY/WX    TMP DP  RH WIND       PRES   REMARKS
CHICAGO-OHARE  CLOUDY    71  58  63 E8        30.05S
DUPAGE         CLOUDY    69  61  75 E5        30.05S
CHICAGO-MIDWAY LGT RAIN  74  64  71 E12       30.04F
MOLINE         CLOUDY    69  67  93 E8        29.96F
ROCKFORD       CLOUDY    65  60  84 E9        30.04F
STERLING       CLOUDY    66  64  94 SE8       30.00F
PEORIA         LGT RAIN  72  69  90 E5        30.01S
$$

NOTE: "FAIR" INDICATES FEW OR NO CLOUDS BELOW 12,000 FEET WITH NO
SIGNIFICANT WEATHER AND/OR OBSTRUCTIONS TO VISIBILITY. WIND
SPEEDS ARE IN MILES-PER-HOUR.



USA.gov is the U.S. government's official web portal to all federal, state and local government web resources and services.